Regional Weather Roundup
Issued by NWS

Home | Current Version | Previous Version | Graphics & Text | Print | Product List | Glossary On
Versions: 1 2 3 4 5 6 7 8 9 10 11 12 13 14 15 16 17 18 19 20 21 22 23 24 25 26 27 28 29 30 31 32 33 34 35 36 37 38 39 40 41 42 43 44 45 46 47 48 49 50
000
ASUS43 KMKX 251811
RWRWI

WISCONSIN REGIONAL WEATHER ROUNDUP
NATIONAL WEATHER SERVICE MILWAUKEE/SULLIVAN WI
100 PM CDT SAT OCT 25 2014

NOTE: "FAIR" INDICATES FEW OR NO CLOUDS BELOW 12,000 FEET WITH NO
SIGNIFICANT WEATHER AND/OR OBSTRUCTIONS TO VISIBILITY.

WIZ001-002-006>008-014>016-023>028-251900-
NORTHWEST WISCONSIN

CITY           SKY/WX    TMP DP  RH WIND       PRES   REMARKS
SUPERIOR ARPT  SUNNY     59  31  35 W15G28    29.92F
6HR MIN TEMP:  47; 6HR MAX TEMP:  59;

ASHLAND        SUNNY     58  32  37 W14G29    29.89F
6HR MIN TEMP:  46; 6HR MAX TEMP:  58;

HAYWARD        SUNNY     57  28  33 W15G26    29.94S
6HR MIN TEMP:  49; 6HR MAX TEMP:  57;

SIREN          SUNNY     59  28  30 NW16G24   29.98S
6HR MIN TEMP:  46; 6HR MAX TEMP:  59;

CUMBERLAND     SUNNY     55  28  35 W17G26    29.98S
RICE LAKE      SUNNY     58  30  34 W15G21    29.99F
6HR MIN TEMP:  43; 6HR MAX TEMP:  58;

CHETEK         SUNNY     58  34  39 W8G18     29.97F
6HR MIN TEMP:  47; 6HR MAX TEMP:  58;

LADYSMITH      SUNNY     58  30  35 W15G23    29.96S
6HR MIN TEMP:  47; 6HR MAX TEMP:  58;

EAU CLAIRE     SUNNY     60  30  32 NW16      29.98F
6HR MIN TEMP:  42; 6HR MAX TEMP:  61;

MENOMONIE      SUNNY     60  29  31 W17       30.00S
6HR MIN TEMP:  47; 6HR MAX TEMP:  60;

NEW RICHMOND   SUNNY     60  28  29 NW17G24   30.02S
6HR MIN TEMP:  44; 6HR MAX TEMP:  60;

OSCEOLA        SUNNY     60  31  34 NW9G23    30.04F
6HR MIN TEMP:  49; 6HR MAX TEMP:  60;

$$

WIZ003>005-009-010-017-018-251900-
NORTH CENTRAL WISCONSIN

CITY           SKY/WX    TMP DP  RH WIND       PRES   REMARKS
MANITOWISH WTR SUNNY     54  31  40 W15G24    29.86S
6HR MIN TEMP:  43; 6HR MAX TEMP:  54;

ARBOR VITAE    SUNNY     57  31  37 NW15G26   29.86F
6HR MIN TEMP:  48; 6HR MAX TEMP:  57;

WOODRUFF       SUNNY     57  31  37 NW15G26   29.86F
6HR MIN TEMP:  48; 6HR MAX TEMP:  57;

RHINELANDER    SUNNY     57  28  33 NW12G23   29.85F
6HR MIN TEMP:  44; 6HR MAX TEMP:  57;

EAGLE RIVER    SUNNY     56  24  28 NW17G29   29.82F
6HR MIN TEMP:  47; 6HR MAX TEMP:  56;

LAND O LAKES   SUNNY     56  25  31 NW15G24   29.83S
6HR MIN TEMP:  46; 6HR MAX TEMP:  56;

PHILLIPS       SUNNY     55  30  37 W13G24    29.90S
6HR MIN TEMP:  44; 6HR MAX TEMP:  55;

TOMAHAWK       SUNNY     57  26  30 W18G29    29.89S
6HR MIN TEMP:  45; 6HR MAX TEMP:  57;

MEDFORD        SUNNY     57  30  35 NW15G29   29.92R
6HR MIN TEMP:  45; 6HR MAX TEMP:  57;

MERRILL        SUNNY     59  30  32 NW14G26   29.87F
6HR MIN TEMP:  47; 6HR MAX TEMP:  59;

$$

WIZ029-030-035-036-043>047-251900-
CENTRAL WISCONSIN

CITY           SKY/WX    TMP DP  RH WIND       PRES   REMARKS
WAUSAU         SUNNY     60  26  27 NW17G29   29.87F
6HR MIN TEMP:  48; 6HR MAX TEMP:  60;

MOSINEE        SUNNY     59  28  31 NW17G26   29.90F
MARSHFIELD     SUNNY     60  33  36 W21G30    29.93R
6HR MIN TEMP:  47; 6HR MAX TEMP:  60;

STEVENS POINT  SUNNY     58  30  34 W15G26    29.90S
6HR MIN TEMP:  48; 6HR MAX TEMP:  58; 6HR PCP:  0.01;

WAUPACA        SUNNY     64  28  25 W17G26    29.88S
6HR MIN TEMP:  50; 6HR MAX TEMP:  65;

WAUTOMA        CLOUDY    64  32  30 NW22      29.91S
6HR MIN TEMP:  49; 6HR MAX TEMP:  64;

WISC RAPIDS    SUNNY     62  31  31 NW21G30   29.94S
6HR MIN TEMP:  48; 6HR MAX TEMP:  63;

CAMP DOUGLAS   MOSUNNY   64  30  27 W20G26    29.95F
$$

WIZ011>013-019>022-031-037>040-048>050-251900-
NORTHEAST WISCONSIN

CITY           SKY/WX    TMP DP  RH WIND       PRES   REMARKS
ANTIGO         SUNNY     57  31  37 NW18G26   29.85F
6HR MIN TEMP:  45; 6HR MAX TEMP:  57;

SHAWANO        SUNNY     64  28  26 NW18G28   29.83F
6HR MIN TEMP:  51; 6HR MAX TEMP:  64;

OCONTO         SUNNY     64  30  28 NW13G25   29.78F
6HR MIN TEMP:  50; 6HR MAX TEMP:  64;

STURGEON BAY   SUNNY     61  36  39 W13G22    29.79F
6HR MIN TEMP:  52; 6HR MAX TEMP:  61;

GREEN BAY      SUNNY     64  33  31 W17G25    29.82F
6HR MIN TEMP:  52; 6HR MAX TEMP:  64;

MANITOWOC      SUNNY     63  33  32 W25G31    29.82F
6HR MIN TEMP:  54; 6HR MAX TEMP:  63;

APPLETON       SUNNY     63  30  29 NW21      29.86F
CLINTONVILLE   SUNNY     63  30  29 NW16G24   29.84F
OSHKOSH        SUNNY     63  33  32 W20G30    29.86F
6HR MIN TEMP:  52; 6HR MAX TEMP:  63;

$$

WIZ032>034-041-042-053>061-251900-
SOUTHWEST WISCONSIN

CITY           SKY/WX    TMP DP  RH WIND       PRES   REMARKS
LA CROSSE      SUNNY     65  33  30 NW15      30.00F
6HR MIN TEMP:  43; 6HR MAX TEMP:  66;

SPARTA         SUNNY     64  27  24 NW10G25   29.98F
6HR MIN TEMP:  42; 6HR MAX TEMP:  64;

VIROQUA        SUNNY     63  31  30 NW12      30.00F
6HR MIN TEMP:  49; 6HR MAX TEMP:  63;

BOSCOBEL       SUNNY     68  36  30 W13       30.00F
6HR MIN TEMP:  49; 6HR MAX TEMP:  68;

PRAIRIE DU CHI SUNNY     66  30  25 NW13G20   30.02F
6HR MIN TEMP:  46; 6HR MAX TEMP:  66;

PLATTEVILLE    SUNNY     66  33  29 NW16      30.02F
6HR MIN TEMP:  52; 6HR MAX TEMP:  66;

$$

WIZ056-057-062-063-064-067-068-251900-
SOUTH CENTRAL WISCONSIN

CITY           SKY/WX    TMP DP  RH WIND       PRES   REMARKS
REEDSBURG      SUNNY     64  33  31 W18G24    29.95F
6HR MIN TEMP:  47; 6HR MAX TEMP:  64;

BARABOO/DELLS  SUNNY     65  28  24 W18       29.94F
6HR MIN TEMP:  51; 6HR MAX TEMP:  65;

LONE ROCK      SUNNY     70  34  26 NW16      29.97F
6HR MIN TEMP:  55; 6HR MAX TEMP:  70;

MINERAL POINT  SUNNY     66  28  24 W17       29.99F
MADISON        MOSUNNY   67  31  26 W15G23    29.94F
6HR MIN TEMP:  54; 6HR MAX TEMP:  67;

MIDDLETON      SUNNY     68  29  23 W15       29.95F
6HR MIN TEMP:  53; 6HR MAX TEMP:  68;

WATERTOWN      SUNNY     66  33  29 W12G24    29.91F
6HR MIN TEMP:  51; 6HR MAX TEMP:  66;

MONROE         SUNNY     64  34  32 W9G23     29.97F
JANESVILLE     SUNNY     70  34  26 NW12G17   29.95F
$$

WIZ051-052-058>065-066-070>072-251900-
SOUTHEAST WISCONSIN

CITY           SKY/WX    TMP DP  RH WIND       PRES   REMARKS
MILWAUKEE      MOSUNNY   66  32  28 W17G26    29.89F
6HR MIN TEMP:  56; 6HR MAX TEMP:  67;

WAUKESHA       SUNNY     63  34  34 W17G28    29.92F
MILWAUKEE/TIMM SUNNY     66  30  26 W23       29.89F
RACINE         SUNNY     68  35  29 W15G23    29.92F
6HR MIN TEMP:  54; 6HR MAX TEMP:  68;

BURLINGTON     SUNNY     66  34  30 W15       29.92F
6HR MIN TEMP:  52; 6HR MAX TEMP:  66;

KENOSHA        SUNNY     68  39  34 W16G25    29.91F
6HR MIN TEMP:  54; 6HR MAX TEMP:  68;

FOND DU LAC    SUNNY     63  33  32 W21G30    29.88F
6HR MIN TEMP:  53; 6HR MAX TEMP:  63;

SHEBOYGAN      SUNNY     63  32  31 W23G30    29.85F
6HR MIN TEMP:  54; 6HR MAX TEMP:  64;

WEST BEND      SUNNY     63  28  27 W18G29    29.88F
JUNEAU         SUNNY     64  30  28 W16G25    29.92S
6HR MIN TEMP:  49; 6HR MAX TEMP:  64;

$$

LSZ147-162-251900-
LAKE SUPERIOR

STATION/POSITION TIME  TEMP    WIND        PRES    WAVE
                       AIR SEA DIR/SP/G            HT/PER
                 (UTC) (F)     (DEG/KT/KT) (MB)    (FT/S)
W MID LAKE BUOY  1750   49 46  240/ 19/ 23 1008.3F   6/ 6
DEVILS ISLAND    1800   51     250/ 22/ 25 1010.5F
PORT WING        1700   53     260/ 12/ 19 1012.9
SAXON HARBOR     1700   55     280/ 12/ 21 1011.9F
$$

LMZ867-665-643>646-251900-
LAKE MICHIGAN

STATION/POSITION TIME  TEMP    WIND        PRES    WAVE



USA.gov is the U.S. government's official web portal to all federal, state and local government web resources and services.